Hourly Data Report for September 11, 2017

All times are specified in Local Standard Time (LST). Add 1 hour to adjust for Daylight Saving Time where and when it is observed.

IQALUIT CLIMATE
NUNAVUT

63°44'50.000" N
68°32'40.000" W
33.50 m
2402592
71321
XFB

Download Data

Hourly Data (September 2017)
Hourly Data Report for September 11, 2017
Temp Definition
°C
Dew Point Temp Definition
°C
Rel Hum Definition
%
Wind Dir Definition
10's deg

Wind Spd Definition
km/h
Visibility Definition
km
Stn Press Definition
kPa
Hmdx Definition


Wind Chill Definition


Weather Definition


TIME
00:00 1.3 -3.9 68 30 31   101.43     LegendNANA
01:00 1.1 -4.3 67 30 27   101.47     LegendNANA
02:00 0.4 -4.4 70 29 20   101.44     LegendNANA
03:00 -0.4 -4.5 74 29 19   101.46   -6 LegendNANA
04:00 -1.5 -4.4 81 35 11   101.48   -5 LegendNANA
05:00 -1.3 -4.4 79 34 13   101.43   -6 LegendNANA
06:00 -0.7 -3.7 80 35 10   101.42   -4 LegendNANA
07:00 1.0 -3.4 72 34 7   101.38     LegendNANA
08:00 1.3 -3.4 71 35 8   101.37     LegendNANA
09:00 2.0 -3.7 66 21 7   101.30     LegendNANA
10:00 2.4 -3.9 63 21 4   101.32     LegendNANA
11:00 2.6 -3.8 63 14 6   101.24     LegendNANA
12:00 2.7 -3.6 63 14 7   101.17     LegendNANA
13:00 2.3 -3.2 67 20 12   101.13     LegendNANA
14:00 2.4 -3.3 66 14 7   101.06     LegendNANA
15:00 2.3 -5.6 56 13 5   101.01     LegendNANA
16:00 1.7 -3.1 70 16 6   100.93     LegendNANA
17:00 1.6 -3.0 71 13 7   100.86     LegendNANA
18:00 1.5 -3.5 69 13 6   100.81     LegendNANA
19:00 1.9 -2.6 72 15 7   100.73     LegendNANA
20:00 1.9 -2.7 71 13 6   100.61     LegendNANA
21:00 1.7 -1.8 78 14 14   100.50     LegendNANA
22:00 2.7 -3.0 66 12 18   100.34     LegendNANA
23:00 2.9 -3.6 63 13 13   100.31     LegendNANA

Notes on Data Quality.

Legend

  • E = Estimated
  • M = Missing
  • NA = Not Available
  • ‡ = Partner data that is not subject to review by the National Climate Archives
Date modified: